星链-5224 (STARLINK-5224 )

导读

STARLINK-5224是美国太空探索技术公司 SpaceX 星链星座中的一颗卫星,于2023年1月31日发射入轨,属于星链互联网卫星网络的组成部分,主要服务是为全球不同区域提供高速卫星互联网接入服务,填补地面网络未覆盖区域的服务空白,该卫星运行在近地轨道,参与构建低轨卫星通信星座系统。

基本信息
目录编号:
55397
目录名称:
STARLINK-5224
国际标识:
2023-014G
轨道中心:
EARTH
卫星名称:
星链-5224
卫星全名:
星链-5224 (STARLINK-5224 )
卫星状态:
在轨 (已飞行1231 天)
发射日期:
2023-01-31 UTC
国别 :
美国 (US)
星等 :
--
轨道信息
数据来源 国际轨道数据 AOE轨道数据
星历时间 2026-06-15T00:28:07+0800
13小时前
查看轨道信息
2026-06-09T06:00:00+0800
6天前
查看轨道信息
半长轴 6950.321km 6950.196km
偏心率 0.0003169 0.0003536
轨道倾角 69.999° 70.000°
近地点辐角 270.904° 277.154°
升交点赤经 160.043° 174.591°
平近点角 89.176° 291.040°
近地点 569.981km 569.601km
远地点 574.387km 574.517km
周期 96.110分钟 96.107分钟
每日圈数 14.982886 14.983293
详细信息
固有亮度:
5
最大亮度:
2.5
卫星平台:
Starlink v1.5
覆盖范围:
全球
运营商:
太空探索技术公司
运营商所在国:
美国
制造商(研发单位):
太空探索技术公司
制造商所在国:
美国
使用方式:
暂无
卫星简介
星链(Starlink)计划是由太空探索技术公司(SpaceX)提出的一个巨型低轨卫星互联网星座项目,计划在2019年至2024年间在太空搭建由约1.2万颗卫星组成的“星链”网络,其中1584颗将部署在地球上空550千米处的近地轨道,并从2020年开始工作。该卫星仍在工作。
2D轨道图
3D轨道图
轨道高度分析图
轨道倾角分析图
轨道综合分析图
查看轨道综合分析图